Wellsville, NY

9:10 PM EST on November 24, 2017 (GMT -0500)
Wellsville Municipal-Tarantine

Weather History for KELZ - December, 2012

Change the Weather History Date:

Sunday, December 9, 2012

  Actual Average (KDSV) Record (KDSV)
Temperature  
Mean Temperature 36 °F -  
Max Temperature 42 °F 40 °F 68 °F (1966)
Min Temperature 30 °F 24 °F 3 °F (2002)
Degree Days  
Heating Degree Days 30    
Moisture  
Dew Point 29 °F    
Average Humidity 78    
Maximum Humidity 89    
Minimum Humidity 59    
Precipitation  
Precipitation 0.06 in - - ()
Sea Level Pressure  
Sea Level Pressure 30.09 in    
Wind  
Wind Speed 7 mph (ESE)    
Max Wind Speed 20 mph    
Max Gust Speed 28 mph    
Visibility 10 miles    
Events Rain    
Averages and records for this station are not official NWS values.
T = Trace of Precipitation, MM = Missing Value Source: NWS Daily Summary

Daily Weather History Graph

Daily Weather History Graph

Search for Another Location

Airport or City:

Trip Planner

Search our weather history database for the weather conditions in past years. The results will help you decide how hot, cold, wet, or windy it might be!

Date:

Astronomy

Dec. 09, 2012 Rise Set
Actual Time 7:28 AM EST 4:40 PM EST
Civil Twilight 6:57 AM EST 5:11 PM EST
Nautical Twilight 6:22 AM EST 5:46 PM EST
Astronomical Twilight 5:48 AM EST 6:20 PM EST
Moon 2:56 AM EST (12/9) 1:48 PM EST (12/9)
Length of Visible Light 10h 14m
Length of Day
9h 11m
Waning Crescent, 19% of the Moon is Illuminated
Dec 9
Waning Crescent
Dec 13
New
Dec 20
First Quarter
Dec 28
Full
Jan 4
Last Quarter

Hourly Weather History & Observations

Time (EST) Temp. Windchill Dew Point Humidity Pressure Visibility Wind Dir Wind Speed Gust Speed Precip Events Conditions
12:23 AM 35.6 °F 30.7 °F 30.2 °F 81% 30.10 in 10.0 mi North 5.8 mph - N/A   Overcast
12:56 AM 34.0 °F 28.8 °F 30.0 °F 85% 30.14 in 10.0 mi NNW 5.8 mph - N/A   Overcast
1:23 AM 33.8 °F 27.7 °F 28.4 °F 81% 30.10 in 10.0 mi North 6.9 mph - N/A   Overcast
2:56 AM 33.1 °F 30.0 °F 28.0 °F 82% 30.17 in 10.0 mi NE 3.5 mph - N/A   Overcast
3:56 AM 33.1 °F - 28.0 °F 82% 30.19 in 10.0 mi Calm Calm - N/A   Overcast
4:09 AM 33.8 °F 30.8 °F 26.6 °F 75% 30.15 in 10.0 mi North 3.5 mph - N/A   Overcast
4:52 AM 32.0 °F 28.7 °F 26.6 °F 80% 30.16 in 10.0 mi North 3.5 mph - N/A   Overcast
4:56 AM 32.0 °F 27.5 °F 26.1 °F 79% 30.20 in 10.0 mi NNE 4.6 mph - N/A   Overcast
5:26 AM 30.2 °F 25.4 °F 26.6 °F 86% 30.15 in 10.0 mi NNE 4.6 mph - N/A   Scattered Clouds
5:53 AM 30.2 °F - 26.6 °F 86% 30.16 in 10.0 mi Calm Calm - N/A   Mostly Cloudy
5:56 AM 30.9 °F 25.2 °F 26.1 °F 82% 30.21 in 10.0 mi NE 5.8 mph - N/A   Overcast
6:05 AM 30.2 °F 24.3 °F 26.6 °F 86% 30.16 in 10.0 mi ENE 5.8 mph - N/A   Overcast
6:36 AM 30.2 °F 25.4 °F 24.8 °F 80% 30.16 in 10.0 mi East 4.6 mph - N/A   Scattered Clouds
6:56 AM 30.0 °F 24.1 °F 24.1 °F 79% 30.23 in 10.0 mi East 5.8 mph - N/A   Partly Cloudy
7:56 AM 30.0 °F 23.2 °F 25.0 °F 82% 30.24 in 10.0 mi ENE 6.9 mph - N/A   Overcast
8:56 AM 30.0 °F 24.1 °F 25.0 °F 82% 30.25 in 10.0 mi ESE 5.8 mph - N/A   Overcast
9:54 AM 32.0 °F 24.8 °F 24.8 °F 75% 30.18 in 10.0 mi ESE 8.1 mph - N/A   Overcast
9:56 AM 32.0 °F 23.6 °F 25.0 °F 75% 30.24 in 10.0 mi ESE 10.4 mph - N/A   Overcast
10:56 AM 33.1 °F 26.1 °F 25.0 °F 72% 30.22 in 10.0 mi ESE 8.1 mph - N/A   Overcast
11:56 AM 34.0 °F 26.0 °F 26.1 °F 73% 30.19 in 10.0 mi ESE 10.4 mph - N/A   Overcast
12:56 PM 35.1 °F 26.4 °F 26.1 °F 70% 30.16 in 10.0 mi SE 12.7 mph 18.4 mph N/A   Overcast
1:56 PM 36.0 °F 29.6 °F 26.1 °F 67% 30.12 in 10.0 mi SSE 8.1 mph 16.1 mph N/A   Overcast
2:33 PM 37.4 °F 29.3 °F 24.8 °F 60% 30.05 in 10.0 mi SE 12.7 mph 18.4 mph N/A   Overcast
2:56 PM 37.0 °F 28.9 °F 24.1 °F 59% 30.11 in 10.0 mi SE 12.7 mph 19.6 mph N/A   Overcast
3:56 PM 37.0 °F 29.8 °F 25.0 °F 62% 30.09 in 10.0 mi SSE 10.4 mph 19.6 mph N/A   Overcast
4:09 PM 37.4 °F 29.8 °F 24.8 °F 60% 30.03 in 10.0 mi SE 11.5 mph 20.7 mph N/A   Overcast
4:56 PM 37.0 °F 28.9 °F 27.0 °F 67% 30.07 in 10.0 mi SSE 12.7 mph 20.7 mph N/A   Overcast
5:56 PM 37.0 °F 28.5 °F 28.9 °F 73% 30.04 in 10.0 mi SE 13.8 mph 21.9 mph N/A   Overcast
6:35 PM 37.4 °F 30.3 °F 30.2 °F 75% 29.97 in 10.0 mi SSE 10.4 mph 19.6 mph 0.00 in Rain Light Rain
6:56 PM 37.0 °F 29.8 °F 33.1 °F 86% 30.01 in 10.0 mi SE 10.4 mph 18.4 mph 0.00 in Rain Light Rain
7:56 PM 39.0 °F 30.3 °F 35.1 °F 86% 29.97 in 10.0 mi SSE 16.1 mph 26.5 mph 0.02 in Rain Light Rain
8:56 PM 39.0 °F 29.3 °F 36.0 °F 89% 29.93 in 10.0 mi SSE 19.6 mph 25.3 mph 0.02 in Rain Light Rain
9:34 PM 39.2 °F 31.2 °F 35.6 °F 87% 29.85 in 8.0 mi South 13.8 mph 24.2 mph 0.01 in Rain Light Rain
9:56 PM 41.0 °F 33.9 °F 37.0 °F 86% 29.90 in 10.0 mi South 12.7 mph 27.6 mph 0.02 in   Overcast
10:21 PM 41.0 °F 33.5 °F 37.4 °F 87% 29.84 in 10.0 mi SSE 13.8 mph 25.3 mph 0.00 in Rain Light Rain
11:05 PM 41.0 °F 33.5 °F 37.4 °F 87% 29.82 in 10.0 mi South 13.8 mph 25.3 mph N/A   Overcast
11:56 PM 42.1 °F 35.2 °F 37.9 °F 85% 29.86 in 10.0 mi SSE 12.7 mph 25.3 mph 0.00 in   Overcast